Home   Weather   Horsham   Past weeks

Flag for United Kingdom Past Weather in Horsham, England, United Kingdom — Yesterday and Last 2 Weeks

Now
36 °F

Passing clouds.


Feels Like: 30 °F
Forecast: 33 / 50 °F
Wind: 7 mph from Northwest

Location: London / Gatwick Airport

Current Time: Apr 26, 2017 at 5:20:30 am

Latest Report: Apr 26, 2017 at 4:50 am


Visibility: N/A

Pressure: 29.98 "Hg

Humidity: 87%

Dew Point: 32 °F

Location of HorshamLocation

Past Weather in Horsham — Graph

°F

Horsham Temperature Yesterday

Maximum temperature yesterday: 52 °F (at 4:20 pm)
Minimum temperature yesterday: 30 °F (at 5:20 am)
Average temperature yesterday: 42 °F

High & Low Weather Summary for the Past Weeks

 TemperatureHumidityPressure
High61 °F (Apr 12, 3:20 pm)100% (Apr 18, 2:50 am)30.63 "Hg (Apr 18, 2:50 am)
Low30 °F (Apr 25, 5:20 am)28% (Apr 25, 3:50 pm)29.89 "Hg (Apr 24, 4:50 pm)
Average49 °F66%30.23 "Hg
* Reported Apr 11 4:20 am — Apr 26 4:20 am, Horsham, Weather by CustomWeather, © 2017

Note: Actual official high and low records may vary slightly from our data, if they occured in-between our weather recording intervals... More about our weather records

Advertising

Horsham Weather History for the Previous 24 Hours

Scroll right to see more
 ConditionsComfort  
Time TempWeatherWind HumidityBarometerVisibility
4:20 am
Wed, Apr 26
37 °FPassing clouds.8 mph81%29.98 "HgN/A
3:50 am36 °FPassing clouds.7 mph87%29.98 "HgN/A
3:20 am36 °FPassing clouds.8 mph87%29.98 "HgN/A
2:50 am36 °FPassing clouds.8 mph87%29.98 "HgN/A
2:20 am36 °FPassing clouds.7 mph87%29.98 "HgN/A
1:50 am36 °FPassing clouds.6 mph87%30.01 "HgN/A
1:20 am36 °FPassing clouds.7 mph87%29.98 "HgN/A
12:50 am37 °FPassing clouds.7 mph81%29.98 "HgN/A
12:20 am37 °FPassing clouds.8 mph81%29.98 "HgN/A
11:50 pm
Tue, Apr 25
37 °FPassing clouds.7 mph81%29.98 "HgN/A
11:20 pm37 °FClear.8 mph81%29.98 "Hg10 mi
10:50 pm39 °FClear.7 mph75%29.98 "Hg10 mi
10:20 pm39 °FClear.7 mph75%29.98 "Hg10 mi
9:50 pm41 °FClear.7 mph70%29.95 "Hg10 mi
9:20 pm41 °FClear.8 mph70%29.95 "Hg10 mi
8:50 pm43 °FClear.9 mph66%29.95 "Hg10 mi
8:20 pm43 °FPassing clouds.12 mph66%29.92 "HgN/A
7:50 pm46 °FPassing clouds.13 mph53%29.92 "HgN/A
7:20 pm46 °FPassing clouds.10 mph50%29.92 "HgN/A
6:50 pm46 °FBroken clouds.12 mph57%29.92 "HgN/A
6:20 pm46 °FSprinkles. Passing clouds.20 mph57%29.92 "HgN/A
5:50 pm50 °FPassing clouds.10 mph30%29.89 "HgN/A
5:20 pm52 °FSunny.14 mph28%29.89 "Hg10 mi
4:50 pm52 °FPassing clouds.12 mph28%29.92 "HgN/A
4:20 pm52 °FSunny.13 mph28%29.92 "Hg10 mi
3:50 pm50 °FPassing clouds.12 mph28%29.92 "HgN/A
3:20 pm50 °FPassing clouds.10 mph30%29.92 "HgN/A
2:50 pm50 °FPassing clouds.13 mph30%29.92 "HgN/A
2:20 pm50 °FSunny.10 mph32%29.92 "Hg10 mi
1:50 pm50 °FSunny.15 mph30%29.95 "Hg10 mi
1:20 pm46 °FPassing clouds.8 mph37%29.95 "HgN/A
12:50 pm46 °FPassing clouds.10 mph37%29.95 "HgN/A
12:20 pm46 °FPassing clouds.10 mph40%29.95 "HgN/A
11:50 am46 °FPassing clouds.8 mph37%29.95 "HgN/A
11:20 am46 °FPassing clouds.10 mph40%29.95 "HgN/A
10:50 am46 °FPassing clouds.9 mph40%29.95 "HgN/A
10:20 am45 °FPassing clouds.9 mph46%29.95 "HgN/A
9:50 am45 °FScattered clouds.10 mph46%29.95 "HgN/A
9:20 am43 °FPassing clouds.12 mph53%29.95 "HgN/A
8:50 am41 °FSunny.13 mph61%29.92 "Hg10 mi
8:20 am39 °FPassing clouds.14 mph61%29.92 "HgN/A
7:50 am39 °FPassing clouds.14 mph61%29.92 "HgN/A
7:20 am37 °FPassing clouds.6 mph60%29.92 "HgN/A
6:50 am36 °FScattered clouds.6 mph65%29.92 "HgN/A
6:20 am32 °FPassing clouds.5 mph75%29.92 "HgN/A
5:50 am32 °FSunny.5 mph69%29.92 "Hg10 mi
5:20 am30 °FClear.6 mph75%29.92 "Hg10 mi
Weather by CustomWeather, © 2017

See weather overviewHow to use our weather pages